User: anonymous   Login
Location: Unspecified
(0.0000°N, 0.0000°E)
Time: 13:24:17
(UTC+00:00)
Language:

GALAXY 17 - Orbit

View from above orbital plane
View from above orbital plane
View from above satellite
View from above satellite

Ground track
Ground track

The orbit data is extracted from the following two-line orbital elements,

1 31307U 07016B   21266.87426370 -.00000182  00000-0  00000-0 0  9994
2 31307   0.0227 170.8662 0003205  21.3549  34.4482  1.00270083 52486
Epoch (UTC): 23 September 2021 20:58:56
Eccentricity: 0.0003205
inclination: 0.0227°
perigee height: 35773 km
apogee height: 35800 km
right ascension of ascending node: 170.8662°
argument of perigee: 21.3549°
revolutions per day: 1.00270083
mean anomaly at epoch: 34.4482°
orbit number at epoch: 5248

The dashed part of the orbit path shows where the satellite is in the earth's shadow,  

DLR